TimeMDT,TemperatureF,Dew PointF,Humidity,Sea Level PressureIn,VisibilityMPH,Wind Direction,Wind SpeedMPH,Gust SpeedMPH,PrecipitationIn,Events,Conditions,WindDirDegrees,DateUTC
12:51 AM,34.0,26.1,73,30.03,10.0,NNW,5.8,-,N/A,,Clear,330,2013-04-11 06:51:00
1:51 AM,33.1,25.0,72,30.04,10.0,Calm,Calm,-,N/A,,Clear,0,2013-04-11 07:51:00
2:51 AM,34.0,24.1,67,30.04,10.0,NW,8.1,-,N/A,,Partly Cloudy,310,2013-04-11 08:51:00
3:51 AM,33.1,24.1,70,30.04,10.0,NNW,9.2,-,N/A,,Clear,340,2013-04-11 09:51:00
4:51 AM,32.0,23.0,69,30.04,10.0,WSW,3.5,-,N/A,,Clear,250,2013-04-11 10:51:00
5:51 AM,30.0,23.0,75,30.07,10.0,NNW,6.9,-,N/A,,Clear,330,2013-04-11 11:51:00
6:51 AM,28.9,23.0,78,30.09,10.0,NNW,5.8,-,N/A,,Clear,340,2013-04-11 12:51:00
7:51 AM,28.0,23.0,81,30.10,10.0,Calm,Calm,-,N/A,,Clear,0,2013-04-11 13:51:00
8:51 AM,32.0,26.1,79,30.10,10.0,South,3.5,-,N/A,,Clear,190,2013-04-11 14:51:00
9:51 AM,35.1,25.0,67,30.10,10.0,Calm,Calm,-,N/A,,Clear,0,2013-04-11 15:51:00
10:51 AM,39.9,23.0,51,30.08,10.0,Calm,Calm,-,N/A,,Clear,0,2013-04-11 16:51:00
11:51 AM,42.1,23.0,47,30.09,10.0,Calm,Calm,-,N/A,,Partly Cloudy,0,2013-04-11 17:51:00
12:51 PM,46.0,21.9,39,30.06,10.0,West,6.9,-,N/A,,Partly Cloudy,280,2013-04-11 18:51:00
1:51 PM,46.9,25.0,42,30.03,10.0,WSW,10.4,16.1,N/A,,Partly Cloudy,250,2013-04-11 19:51:00
2:51 PM,48.0,23.0,37,30.01,10.0,WSW,10.4,16.1,N/A,,Partly Cloudy,250,2013-04-11 20:51:00
3:51 PM,48.9,24.1,38,30.00,10.0,Variable,6.9,17.3,N/A,,Scattered Clouds,0,2013-04-11 21:51:00
4:51 PM,50.0,21.0,32,30.00,10.0,WNW,13.8,21.9,N/A,,Clear,290,2013-04-11 22:51:00
5:51 PM,48.0,23.0,37,30.00,10.0,WNW,11.5,-,N/A,,Clear,300,2013-04-11 23:51:00
6:51 PM,46.0,19.9,35,30.02,10.0,NW,8.1,-,N/A,,Clear,320,2013-04-12 00:51:00
7:51 PM,43.0,12.9,30,30.04,10.0,NW,10.4,-,N/A,,Clear,310,2013-04-12 01:51:00
8:51 PM,39.9,19.9,45,30.04,10.0,NNW,8.1,-,N/A,,Clear,340,2013-04-12 02:51:00
9:51 PM,37.0,21.0,52,30.06,10.0,North,6.9,-,N/A,,Clear,350,2013-04-12 03:51:00
10:51 PM,35.1,21.0,57,30.06,10.0,North,4.6,-,N/A,,Clear,350,2013-04-12 04:51:00
11:51 PM,33.1,21.9,64,30.06,10.0,North,3.5,-,N/A,,Clear,360,2013-04-12 05:51:00